Meacham, OR

9:56 AM PDT on August 18, 2017 (GMT -0700)
Meacham

Weather History for KMEH - May, 2014

Change the Weather History Date:

Sunday, May 11, 2014

  Actual Average Record
Temperature  
Mean Temperature 42 °F -  
Max Temperature 55 °F 55 °F 82 °F (2013)
Min Temperature 28 °F 30 °F 21 °F (2012)
Degree Days  
Heating Degree Days 24    
Moisture  
Dew Point 33 °F    
Average Humidity 74    
Maximum Humidity 92    
Minimum Humidity 45    
Precipitation  
Precipitation 0.00 in - - ()
Sea Level Pressure  
Sea Level Pressure 30.27 in    
Wind  
Wind Speed 1 mph (North)    
Max Wind Speed 6 mph    
Max Gust Speed -    
Visibility 10 miles    
Events      
Averages and records for this station are not official NWS values.
T = Trace of Precipitation, MM = Missing Value Source: NWS Daily Summary

Daily Weather History Graph

Daily Weather History Graph

Search for Another Location

Airport or City:

Trip Planner

Search our weather history database for the weather conditions in past years. The results will help you decide how hot, cold, wet, or windy it might be!

Date:

Astronomy

May. 11, 2014 Rise Set
Actual Time 5:27 AM PDT 8:13 PM PDT
Civil Twilight 4:53 AM PDT 8:47 PM PDT
Nautical Twilight 4:10 AM PDT 9:30 PM PDT
Astronomical Twilight 3:20 AM PDT 10:21 PM PDT
Moon 5:04 PM PDT (5/11) 3:45 AM PDT (5/11)
Length of Visible Light 15h 53m
Length of Day
14h 45m
Waxing Gibbous, 90% of the Moon is Illuminated
May 11
Waxing Gibbous
May 14
Full
May 21
Last Quarter
May 28
New
Jun 5
First Quarter

Hourly Weather History & Observations

Time (PDT) Temp. Windchill Dew Point Humidity Pressure Visibility Wind Dir Wind Speed Gust Speed Precip Events Conditions
12:56 AM 30.9 °F - 28.9 °F 92% 30.22 in 10.0 mi Calm Calm - N/A   Clear
1:56 AM 30.0 °F - 28.0 °F 92% 30.23 in 10.0 mi Calm Calm - N/A   Clear
2:56 AM 30.0 °F - 28.0 °F 92% 30.24 in 10.0 mi Calm Calm - N/A   Partly Cloudy
3:12 AM 30.0 °F - 28.0 °F 92% 30.20 in 10.0 mi Calm Calm - N/A   Mostly Cloudy
3:42 AM 30.0 °F - 28.0 °F 92% 30.20 in 10.0 mi Calm Calm - N/A   Scattered Clouds
3:56 AM 30.0 °F - 28.0 °F 92% 30.25 in 10.0 mi Calm Calm - N/A   Partly Cloudy
4:56 AM 28.9 °F - 27.0 °F 92% 30.25 in 10.0 mi Calm Calm - N/A   Clear
5:56 AM 28.9 °F - 26.1 °F 89% 30.27 in 10.0 mi Calm Calm - N/A   Clear
6:56 AM 30.0 °F - 28.0 °F 92% 30.27 in 10.0 mi Calm Calm - N/A   Unknown
7:56 AM 39.0 °F - 35.1 °F 86% 30.27 in 10.0 mi Calm Calm - N/A   Partly Cloudy
8:12 AM 41.0 °F - 35.1 °F 79% 30.24 in 10.0 mi Calm Calm - N/A   Mostly Cloudy
8:56 AM 45.0 °F - 35.1 °F 68% 30.27 in 10.0 mi Calm Calm - N/A   Mostly Cloudy
9:12 AM 45.0 °F 42.6 °F 35.1 °F 68% 30.24 in 10.0 mi Variable 4.6 mph - N/A   Partly Cloudy
9:56 AM 46.9 °F - 35.1 °F 63% 30.28 in 10.0 mi North - - N/A   Mostly Cloudy
10:56 AM 48.0 °F - 36.0 °F 63% 30.30 in 10.0 mi Variable 3.5 mph - N/A   Mostly Cloudy
11:03 AM 48.0 °F - 36.0 °F 63% 30.26 in 10.0 mi Variable 4.6 mph - N/A   Mostly Cloudy
11:56 AM 50.0 °F - 35.1 °F 57% 30.30 in 10.0 mi Variable 5.8 mph - N/A   Overcast
12:19 PM 51.1 °F - 37.0 °F 59% 30.25 in 10.0 mi Calm Calm - N/A   Mostly Cloudy
12:56 PM 50.0 °F - 36.0 °F 59% 30.29 in 10.0 mi Variable 3.5 mph - N/A   Overcast
1:56 PM 51.1 °F - 35.1 °F 54% 30.29 in 10.0 mi North - - N/A   Mostly Cloudy
2:56 PM 51.1 °F - 33.1 °F 50% 30.29 in 10.0 mi Calm Calm - N/A   Mostly Cloudy
3:56 PM 55.0 °F - 34.0 °F 45% 30.27 in 10.0 mi Variable 5.8 mph - N/A   Clear
4:56 PM 53.1 °F - 34.0 °F 48% 30.28 in 10.0 mi Calm Calm - N/A   Mostly Cloudy
5:56 PM 52.0 °F - 35.1 °F 53% 30.28 in 10.0 mi Variable 5.8 mph - N/A   Clear
6:56 PM 51.1 °F - 34.0 °F 52% 30.29 in 10.0 mi Variable 3.5 mph - N/A   Clear
7:56 PM 46.9 °F - 36.0 °F 66% 30.29 in 10.0 mi Variable 3.5 mph - N/A   Clear
8:56 PM 41.0 °F - 36.0 °F 82% 30.31 in 10.0 mi Calm Calm - N/A   Clear
9:56 PM 37.9 °F - 35.1 °F 89% 30.32 in 10.0 mi Calm Calm - N/A   Clear
10:56 PM 35.1 °F - 32.0 °F 89% 30.33 in 10.0 mi Calm Calm - N/A   Clear
11:56 PM 32.0 °F - 30.0 °F 92% 30.35 in 10.0 mi Calm Calm - N/A   Clear